Torna al catalogo

STARLINK-30837

AttivoComunicazioniVLEO
NORAD 58212·PAYLOAD·🇺🇸 United States

Lanciato Nov 3, 2023 da Cape Canaveral Space Force Station

Loading…

Prossimi Passaggi (prossime 24 ore)

TLE

AggiornatoSource: CelesTrak SupGP

Epoca: Sep 14, 2026, 22:15 UTC

1 58212C 23170G   26257.92756944 -.00007287  00000+0 -26390-3 0  2574
2 58212  43.0030 205.9228 0001338 262.1439 180.9117 15.27584122    15

Traccia STARLINK-30837 in tempo reale con AllMySat

Download on the App Store